STARLINK-35729

Last updated on Mon Dec 15 2025 00:02:12 GMT+0000 (Coordinated Universal Time)

1 66837U 25280S 25348.25003472 -.01686160 00000+0 -13141-1 0 9992 2 66837 69.9937 194.5074 0003712 271.7203 57.8038 15.74332384 3149
UTC large
Height (km)
Speed (km/s)
/
Latitude / Longitude
Inclination (degrees)
Orbital Period (minutes)
Azimuth
Elevation
Range (km)
Doppler Factor

Next 0 passes for location: London (51.5072 / 0.1276)

Sorry there are no passes over London.